Location: Platte
(43.3870°N, 98.8440°W)
Time: 10:04:54
(UTC-05:00)

Cosmos 1544 - Pass Details

Date: 21 May 2018
Orbit: 476 x 495 km, 82.5° (Epoch: 19 June)

Event Time Altitude Azimuth Distance (km) Brightness Sun altitude
Rises 23:36:03 0° 0° (N) 2,591 7.8 -20.9°
Reaches altitude 10° 23:38:20 10° 10° (N) 1,702 6.5 -21.1°
Enters shadow 23:41:27 33° 66° (ENE) 856 4.2 -21.4°
